FW2439 Weather Reports


time (UTC)temp
C
wind
direction
speed
KPH
gust
KPH
rain 1hr
cm
rain 24hr
cm
rain mn
cm
humidity
%
barometer
mb
20260508121530 6 269 0.0 0.0 0.00 0.00 0.00 98 1018.1
20260508120024 5 269 0.0 0.0 0.00 0.00 0.00 98 1017.8
20260508114523 5 269 0.0 0.0 0.00 0.00 0.00 98 1017.6
20260508113023 5 269 0.0 0.0 0.00 0.00 0.00 98 1017.5
20260508111527 5 269 0.0 0.0 0.00 0.00 0.00 97 1017.1
20260508110025 5 269 0.0 0.0 0.00 0.00 0.00 97 1017.2
20260508104520 5 269 0.0 0.0 0.00 0.00 0.00 97 1017.2
20260508103018 5 269 0.0 0.0 0.00 0.00 0.00 97 1017.2
20260508101517 5 269 0.0 0.0 0.00 0.00 0.00 97 1017.1
20260508100017 5 269 0.0 0.0 0.00 0.00 0.00 97 1016.8
20260508094514 5 269 0.0 0.0 0.00 0.00 0.00 97 1016.6
20260508093017 5 269 0.0 0.0 0.00 0.00 0.00 97 1016.6
20260508091511 6 269 0.0 0.0 0.00 0.00 0.00 97 1016.6
20260508090016 6 269 0.0 0.0 0.00 0.00 0.00 97 1016.6
20260508084508 6 269 0.0 0.0 0.00 0.00 0.00 97 1016.5
20260508083008 6 269 0.0 0.0 0.00 0.00 0.00 97 1016.7
20260508081504 6 269 0.0 0.0 0.00 0.00 0.00 97 1016.6
20260508080004 6 269 0.0 0.0 0.00 0.00 0.00 97 1016.7
20260508074501 7 269 0.0 1.6 0.00 0.00 0.00 97 1016.8
20260508073111 7 269 0.0 0.0 0.00 0.00 0.00 96 1016.8
20260508071605 7 269 0.0 0.0 0.00 0.00 0.00 96 1016.8
20260508070054 7 269 0.0 0.0 0.00 0.00 0.00 96 1017.0
20260508064559 7 269 0.0 0.0 0.00 0.00 0.00 96 1017.2
20260508063057 7 269 0.0 0.0 0.00 0.00 0.00 96 1017.3
20260508061550 8 269 0.0 0.0 0.00 0.00 0.00 96 1017.4
20260508054546 8 269 0.0 0.0 0.00 0.00 0.00 96 1017.5
20260508053044 8 269 0.0 0.0 0.00 0.00 0.00 96 1017.4
20260508051559 8 269 0.0 0.0 0.00 0.00 0.00 95 1017.5
20260508050039 8 269 0.0 0.0 0.00 0.00 0.00 95 1017.5
20260508044547 8 269 0.0 0.0 0.00 0.00 0.00 95 1017.4
20260508043039 8 269 0.0 0.0 0.00 0.00 0.00 94 1017.5
20260508041538 9 269 0.0 0.0 0.00 0.00 0.00 94 1017.4
20260508040048 9 269 0.0 0.0 0.00 0.00 0.00 94 1017.1
20260508034546 9 269 0.0 0.0 0.00 0.00 0.00 93 1017.4
20260508033044 10 269 0.0 0.0 0.00 0.00 0.00 93 1017.7
20260508031540 10 269 0.0 0.0 0.00 0.00 0.00 92 1017.5
20260508030036 10 269 0.0 0.0 0.00 0.00 0.00 92 1017.5
20260508024559 10 269 0.0 0.0 0.00 0.00 0.00 91 1017.1
20260508023038 11 269 0.0 0.0 0.00 0.00 0.00 89 1017.1
20260508021536 11 269 0.0 0.0 0.00 0.00 0.00 87 1016.9
20260508020038 11 269 0.0 0.0 0.00 0.00 0.00 87 1016.8
20260508014537 12 269 0.0 0.0 0.00 0.00 0.00 85 1016.8
20260508013035 12 269 0.0 0.0 0.00 0.00 0.00 81 1016.8
20260508011533 13 269 0.0 0.0 0.00 0.00 0.00 78 1016.5
20260508010047 14 269 0.0 0.0 0.00 0.00 0.00 76 1016.6
20260508004543 15 269 0.0 0.0 0.00 0.00 0.00 72 1016.5
20260508003030 16 269 0.0 0.0 0.00 0.00 0.00 67 1016.5
20260508001538 17 269 0.0 0.0 0.00 0.00 0.00 63 1016.0
20260508000029 17 269 0.0 1.6 0.00 0.00 0.00 60 1016.1
20260507234532 18 269 0.0 3.2 0.00 0.00 0.00 54 1016.0
20260507233028 18 232 0.0 3.2 0.00 0.00 0.00 55 1015.9
20260507231526 18 236 0.0 4.8 0.00 0.00 0.00 52 1016.1
20260507230026 20 342 0.0 4.8 0.00 0.00 0.00 51 1016.1
20260507224524 20 246 0.0 3.2 0.00 0.00 0.00 51 1016.0
20260507223023 20 246 0.0 4.8 0.00 0.00 0.00 51 1016.0
20260507221521 20 244 3.2 8.0 0.00 0.00 0.00 48 1016.0
20260507220018 20 288 0.0 4.8 0.00 0.00 0.00 52 1015.8
20260507214516 20 287 0.0 8.0 0.00 0.00 0.00 50 1015.8
20260507213022 20 270 1.6 8.0 0.00 0.00 0.00 51 1015.9
20260507211513 20 4 3.2 9.7 0.00 0.00 0.00 51 1016.1
20260507210012 20 260 1.6 11.3 0.00 0.00 0.00 49 1016.2
20260507204510 20 79 1.6 8.0 0.00 0.00 0.00 52 1016.3
20260507203011 20 272 1.6 6.4 0.00 0.00 0.00 52 1016.4
20260507201507 20 246 0.0 9.7 0.00 0.00 0.00 49 1016.5
20260507200004 20 266 1.6 11.3 0.00 0.00 0.00 51 1016.6
20260507194506 20 279 1.6 11.3 0.00 0.00 0.00 51 1016.5
20260507193002 20 233 3.2 9.7 0.00 0.00 0.00 51 1016.7
20260507191503 19 307 1.6 6.4 0.00 0.00 0.00 51 1016.8
20260507190006 19 263 0.0 16.1 0.00 0.00 0.00 55 1016.8
20260507184559 19 273 1.6 12.9 0.00 0.00 0.00 56 1016.9
20260507183057 18 242 1.6 9.7 0.00 0.00 0.00 55 1016.8
20260507181554 18 209 1.6 9.7 0.00 0.00 0.00 55 1017.1
20260507180054 18 10 3.2 11.3 0.00 0.00 0.00 56 1017.2
20260507174554 17 342 1.6 11.3 0.00 0.00 0.00 58 1017.4
20260507173124 17 30 1.6 8.0 0.00 0.00 0.00 57 1017.7
20260507171550 18 250 0.0 9.7 0.00 0.00 0.00 62 1017.6
20260507170050 18 36 1.6 9.7 0.00 0.00 0.00 59 1017.8
20260507164547 17 34 0.0 8.0 0.00 0.00 0.00 60 1017.9
20260507163046 17 248 1.6 8.0 0.00 0.00 0.00 59 1018.2
20260507161549 17 293 1.6 8.0 0.00 0.00 0.00 65 1018.2
20260507160049 16 120 3.2 8.0 0.00 0.00 0.00 62 1018.3
20260507154541 16 307 3.2 9.7 0.00 0.00 0.00 61 1018.4
20260507153035 15 59 3.2 8.0 0.00 0.00 0.00 71 1018.5
20260507151533 15 307 1.6 8.0 0.00 0.00 0.00 80 1018.5
20260507150039 14 298 1.6 4.8 0.00 0.00 0.00 79 1018.3
20260507144530 14 301 1.6 6.4 0.00 0.00 0.00 84 1018.3
20260507143025 13 321 0.0 4.8 0.00 0.00 0.00 88 1018.5
20260507141524 13 316 1.6 4.8 0.00 0.00 0.00 92 1018.3
20260507140018 12 308 1.6 6.4 0.00 0.00 0.00 95 1018.1
20260507134514 11 346 0.0 6.4 0.00 0.00 0.00 98 1018.4
20260507133017 11 265 0.0 1.6 0.00 0.00 0.00 100 1018.1
20260507131514 10 309 0.0 4.8 0.00 0.00 0.00 100 1018.1
20260507130009 10 276 0.0 3.2 0.00 0.00 0.00 100 1017.9
20260507124506 10 53 1.6 6.4 0.00 0.00 0.00 100 1017.5
20260507123007 9 299 0.0 1.6 0.00 0.00 0.00 100 1017.5